TERRASAR-X

Last updated on Tue Jul 01 2025 00:02:29 GMT+0000 (Coordinated Universal Time)

1 31698U 07026A 25180.79647582 .00000335 00000+0 19156-4 0 9992 2 31698 97.4457 188.5437 0001605 90.0150 270.1268 15.19151603999722
UTC large
Height (km)
Speed (km/s)
/
Latitude / Longitude
Inclination (degrees)
Orbital Period (minutes)
Azimuth
Elevation
Range (km)
Doppler Factor

Next 0 passes for location: London (51.5072 / 0.1276)

Sorry there are no passes over London.